User: anonymous   Login
Location: Unspecified
(0.0000°N, 0.0000°E)
Time: 03:05:24
(UTC+00:00)
Language:

GSAT 7 - Orbit

View from above orbital plane
View from above orbital plane
View from above satellite
View from above satellite

Ground track
Ground track

The orbit data is extracted from the following two-line orbital elements,

1 39234U 13044B   14356.95270758 -.00000072  00000-0  00000+0 0  4191
2 39234 000.0687 267.1479 0003780 001.3997 239.8163 01.00271763  4842
Epoch (UTC): 22 December 2014 22:51:53
Eccentricity: 0.0003780
inclination: 0.0687°
perigee height: 35770 km
apogee height: 35802 km
right ascension of ascending node: 267.1479°
argument of perigee: 1.3997°
revolutions per day: 1.00271763
mean anomaly at epoch: 239.8163°
orbit number at epoch: 484

The dashed part of the orbit path shows where the satellite is in the earth's shadow,  

DLR